Flight Track Log - Related Links

Times and Time Zones

All times are in EDT time to prevent confusion due to time zone crossing. See the SWA1377 flight status page for this flight to view local times or setup timezone preferences in your user account.

Time Position Orientation Groundspeed Altitude Reporting Facility
EDT Latitude Longitude Course Direction KTS MPH feet Rate Location/Type
Thu 10:24:58 AM 41.8047 -87.7625 90° East 112 129 2,200  Level Chicago Center
Thu 10:26:00 AM 41.7978 -87.6833 97° East 243 280 4,100 2,226 Climbing Chicago Center
Thu 10:27:02 AM 41.7775 -87.5856 106° East 260 299 6,800 3,435 Climbing Chicago Center
Thu 10:28:04 AM 41.7708 -87.4731 95° East 300 345 11,200 4,161 Climbing Chicago Center
Thu 10:29:06 AM 41.7675 -87.3181 92° East 351 404 15,400 3,774 Climbing Chicago Center
Thu 10:30:00 AM 41.7500 -87.0282 90° East  Level FlightAware Approximate
Thu 10:30:08 AM 41.7656 -87.1789 91° East 371 427 19,000  Level Chicago Center
Thu 10:31:10 AM 41.7619 -87.0250 92° East 411 473 21,600 2,661 Climbing Chicago Center
Thu 10:32:12 AM 41.7631 -86.8642 89° East 432 497 24,500 2,903 Climbing Chicago Center
Thu 10:33:14 AM 41.7661 -86.6725 89° East 455 524 27,600 2,516 Climbing Chicago Center
Thu 10:34:16 AM 41.7669 -86.4989 90° East 468 539 29,700 2,226 Climbing Chicago Center
Thu 10:35:18 AM 41.7700 -86.3181 89° East 485 558 32,200 2,177 Climbing Chicago Center
Thu 10:36:20 AM 41.7983 -86.1458 78° East 475 547 34,200 1,355 Climbing Chicago Center
Thu 10:37:22 AM 41.8281 -85.9697 77° East 482 555 35,000 384 Climbing Chicago Center
Thu 10:38:25 AM 41.8578 -85.7953 77° East 479 551 35,000  Level Chicago Center
Thu 10:39:27 AM 41.8869 -85.6186 77° East 482 555 35,000  Level Chicago Center
Thu 10:40:29 AM 41.9228 -85.4056 77° East 483 556 35,000  Level Chicago Center
Thu 10:40:50 AM 41.9311 -85.3622 75° East 485 558 35,000  Level Cleveland Center
Thu 10:41:50 AM 41.9531 -85.1850 80° East 480 552 35,000  Level Cleveland Center
Thu 10:42:50 AM 41.9539 -85.0036 90° East 480 552 35,000  Level Cleveland Center
Thu 10:43:50 AM 41.9525 -84.8247 91° East 475 547 35,000  Level Cleveland Center
Thu 10:44:50 AM 41.9506 -84.6431 91° East 480 552 35,000  Level Cleveland Center
Thu 10:45:50 AM 41.9483 -84.4642 91° East 480 552 35,000  Level Cleveland Center
Thu 10:46:50 AM 41.9447 -84.2656 91° East 480 552 35,000  Level Cleveland Center
Thu 10:47:50 AM 41.9419 -84.0869 91° East 480 552 35,000  Level Cleveland Center
Thu 10:48:50 AM 41.9369 -83.9050 92° East 480 552 35,000  Level Cleveland Center
Thu 10:49:50 AM 41.9356 -83.7264 91° East 480 552 35,000  Level Cleveland Center
Thu 10:50:50 AM 41.9336 -83.5644 91° East 480 552 35,000  Level Cleveland Center
Thu 10:51:50 AM 41.9322 -83.3689 90° East 475 547 35,000  Level Cleveland Center
Thu 10:52:50 AM 41.9317 -83.2264 90° East 475 547 35,000  Level Cleveland Center
Thu 10:53:50 AM 41.9297 -83.0336 91° East 475 547 35,000  Level Cleveland Center
Thu 10:54:50 AM 41.9292 -82.8522 90° East 481 554 35,000 -300 Level Cleveland Center
Thu 10:55:50 AM 41.9261 -82.6764 91° East 481 554 34,400 -750 Descending Cleveland Center
Thu 10:56:50 AM 41.9253 -82.5006 90° East 481 554 33,500 -950 Descending Cleveland Center
Thu 10:57:50 AM 41.9239 -82.3189 91° East 481 554 32,500 -950 Descending Cleveland Center
Thu 10:58:50 AM 41.9222 -82.1431 91° East 481 554 31,600 -950 Descending Cleveland Center
Thu 10:59:50 AM 41.9183 -81.9617 92° East 481 554 30,600 -1,050 Descending Cleveland Center
Thu 11:00:50 AM 41.9264 -81.7889 86° East 475 547 29,500 -1,550 Descending Cleveland Center
Thu 11:01:50 AM 41.9656 -81.6247 72° East 465 535 27,500 -2,000 Descending Cleveland Center
Thu 11:02:50 AM 42.0025 -81.4633 73° East 451 519 25,500 -1,750 Descending Cleveland Center
Thu 11:03:50 AM 42.0411 -81.2933 73° East 445 512 24,000 -750 Descending Cleveland Center
Thu 11:04:50 AM 42.0794 -81.1369 72° East 430 495 24,000  Level Cleveland Center
Thu 11:05:50 AM 42.1156 -80.9806 73° East 430 495 24,000  Level Cleveland Center
Thu 11:06:50 AM 42.1514 -80.8211 73° East 441 507 24,000  Level Cleveland Center
Thu 11:07:50 AM 42.1892 -80.6589 73° East 441 507 24,000  Level Cleveland Center
Thu 11:08:50 AM 42.2247 -80.4989 73° East 436 502 24,000  Level Cleveland Center
Thu 11:09:50 AM 42.2578 -80.3392 74° East 436 502 24,000  Level Cleveland Center
Thu 11:10:50 AM 42.2947 -80.1761 73° East 443 510 24,000 -1,300 Level Cleveland Center
Thu 11:11:50 AM 42.3275 -80.0300 73° East 443 510 21,400 -2,100 Descending Cleveland Center
Thu 11:12:50 AM 42.3642 -79.8581 74° East 438 504 19,800 -1,800 Descending Cleveland Center
Thu 11:13:50 AM 42.3944 -79.7172 74° East 412 474 17,800 -2,000 Descending Cleveland Center
Thu 11:14:50 AM 42.4267 -79.5733 73° East 406 467 15,800 -2,150 Descending Cleveland Center
Thu 11:15:50 AM 42.4544 -79.4406 74° East 382 440 13,500 -1,850 Descending Cleveland Center
Thu 11:16:50 AM 42.5097 -79.3269 57° Northeast 370 426 12,100 -1,250 Descending Cleveland Center
Thu 11:17:50 AM 42.5797 -79.2608 35° Northeast 323 372 11,000 -1,250 Descending Cleveland Center
Thu 11:18:50 AM 42.6519 -79.2000 32° Northeast 311 358 9,600 -1,450 Descending Cleveland Center
Thu 11:19:50 AM 42.7139 -79.1506 30° Northeast 293 337 8,100 -1,300 Descending Cleveland Center
Thu 11:20:50 AM 42.7861 -79.0839 34° Northeast 288 331 7,000 -550 Descending Cleveland Center
Thu 11:21:50 AM 42.8456 -79.0144 41° Northeast 277 319 7,000  Level Cleveland Center
Thu 11:22:50 AM 42.9008 -78.9478 41° Northeast 271 312 7,000 -400 Level Cleveland Center
Thu 11:23:50 AM 42.9542 -78.8897 39° Northeast 271 312 6,200 -758 Descending Cleveland Center
Thu 11:24:25 AM 42.9833 -78.8500 45° Northeast 252 290 5,800 -1,263 Descending Buffalo TRACON
Thu 11:25:25 AM 43.0333 -78.7833 44° Northeast 217 250 4,200 -1,250 Descending Buffalo TRACON
Thu 11:26:25 AM 43.0333 -78.7167 90° East 192 221 3,300 -850 Descending Buffalo TRACON
Thu 11:27:25 AM 43.0000 -78.6667 132° Southeast 144 166 2,500 -850 Descending Buffalo TRACON
Thu 11:28:25 AM 42.9833 -78.6833 216° Southwest 110 127 1,600 -750 Descending Buffalo TRACON
Thu 11:29:25 AM 42.9500 -78.7167 216° Southwest 113 130 1,000 -600 Descending Buffalo TRACON

Login

Don't have an account? Register now (free) for customized features, flight alerts, and more!